Temp
11 11 11 11 11 11 11 11 11 11 10 10 10 10 10 10 10 10 10 10 10 10 10 9 9 9 9 9 9 9 9 9 9 9 10 10 10 10 10 11 11 11 11 11 11 11 11 11 11 11 11 12 12 12 12 12 12 12 12 12 12 13 13 13 13 12 12 12 12
11 11 11 11 11 11 11 11 11 11 10 10 10 10 10 10 10 10 10 10 10 10 10 9 9 9 9 9 9 9 9 9 9 9 10 10 10 10 10 11 11 11 11 11 11 11 11 11 11 11 11 11 12 12 12 12 12 12 12 12 12 13 13 13 13 12 12 12 12
11 11 11 11 11 11 11 11 11 11 10 10 10 10 10 10 10 10 10 10 10 10 10 9 9 9 9 9 9 9 9 9 9 9 10 10 10 10 10 11 11 11 11 11 11 11 11 11 11 11 11 11 11 12 12 12 12 12 12 12 12 12 13 13 12 12 12 12 12
11 11 11 11 11 11 11 11 11 11 11 10 10 10 10 10 10 10 10 10 9 9 9 9 9 9 9 9 9 9 9 9 9 9 10 10 10 10 11 11 11 11 11 11 11 11 11 11 11 11 11 11 11 12 12 12 12 12 12 12 12 12 12 13 13 12 12 12 12
11 11 11 11 11 11 11 11 11 11 11 10 10 10 10 10 10 10 9 9 9 9 9 9 9 9 9 9 9 9 9 9 9 9 10 10 10 11 11 11 11 11 11 11 11 11 11 11 11 11 11 11 11 12 12 12 12 12 12 12 12 12 12 12 12 12 12 13 13
10 10 10 10 10 10 10 10 11 11 10 10 10 10 10 10 10 10 9 9 9 9 9 9 9 9 9 9 9 9 9 9 9 9 10 10 10 11 11 11 11 11 11 11 11 11 11 11 11 11 11 11 11 12 12 12 12 12 12 12 12 12 12 12 12 12 13 13 13
10 10 10 10 10 10 10 10 10 10 10 10 10 10 10 10 10 10 10 9 9 9 9 9 9 9 9 9 9 9 9 9 9 9 9 10 10 11 11 11 11 11 11 11 11 11 11 11 11 11 11 11 11 11 12 12 12 12 12 12 12 12 12 12 12 12 13 13 13
10 10 10 10 10 10 10 10 10 10 10 10 10 10 10 10 10 10 10 9 9 9 9 9 9 9 9 9 9 9 9 9 9 9 9 9 9 10 10 11 11 11 11 11 11 11 11 11 11 11 11 11 11 11 12 12 12 12 12 12 12 12 12 12 12 12 13 13 13
10 10 10 10 10 10 10 10 10 10 10 10 10 10 10 10 10 10 9 9 9 9 9 9 9 9 9 9 9 9 9 9 9 9 9 9 9 9 10 10 11 11 11 11 11 11 11 11 11 11 11 11 11 11 11 11 11 11 12 12 12 12 12 12 12 12 12 13 13
10 10 10 10 10 10 10 10 10 10 10 10 10 10 10 10 10 10 9 9 9 9 9 9 9 9 9 9 9 9 9 9 9 9 9 9 9 9 10 10 11 11 11 11 10 10 10 10 10 11 11 11 11 11 11 11 11 11 12 12 12 12 12 12 12 12 12 13 13
10 10 10 10 10 10 10 10 10 10 10 10 10 10 10 10 10 9 9 9 9 9 9 9 9 9 9 9 9 9 9 9 9 9 9 9 9 9 9 10 10 11 11 11 10 10 10 10 10 10 11 11 11 11 11 11 11 11 12 12 12 12 12 12 12 12 12 12 12
10 10 10 10 10 10 10 10 10 10 10 10 10 10 9 9 9 9 9 9 9 9 9 9 9 9 9 9 9 9 9 9 9 9 9 9 9 9 9 10 10 11 11 11 10 10 10 10 10 10 10 10 11 11 11 11 11 11 12 12 12 12 12 12 12 12 12 12 12
10 10 10 10 10 10 10 10 10 10 10 9 9 9 9 9 9 9 9 9 9 9 9 9 9 9 9 9 9 9 9 9 9 9 9 9 9 9 9 9 10 10 11 11 10 10 10 9 9 9 10 10 10 10 11 11 11 11 11 12 12 12 12 12 12 12 12 12 12
10 10 10 10 10 10 10 10 10 10 10 9 9 9 9 9 9 9 9 9 9 9 9 9 9 9 9 9 9 9 9 9 9 9 9 9 9 9 9 9 9 10 10 10 10 10 10 10 10 10 10 10 10 10 11 11 11 11 12 12 12 12 12 12 12 12 12 12 12
10 10 10 10 10 10 10 10 10 10 10 10 9 9 9 9 9 9 9 9 9 9 9 9 9 9 9 9 9 9 9 9 9 9 9 9 9 9 9 9 9 9 9 10 10 10 10 10 10 10 10 10 10 10 11 11 11 12 12 12 12 12 12 12 12 12 12 11 11
10 10 10 10 10 10 10 10 10 10 10 10 9 9 9 9 9 9 9 9 9 9 9 9 9 9 9 9 9 9 9 9 9 9 9 9 9 9 9 9 9 9 9 9 9 9 9 9 9 9 10 10 10 10 11 11 11 12 12 12 12 12 12 12 12 12 11 11 11
10 10 10 10 10 10 10 10 10 10 10 10 10 9 9 9 9 9 9 9 9 9 9 9 9 9 9 9 9 8 8 8 8 9 9 9 9 9 9 9 9 9 9 9 9 9 9 9 9 9 9 10 10 10 10 11 11 12 12 12 12 12 12 12 12 11 11 11 11
10 10 10 10 10 10 10 10 10 10 10 10 10 9 9 9 9 9 9 9 9 9 9 9 9 9 9 9 9 8 8 8 8 8 8 9 9 9 9 9 9 9 9 9 9 9 9 9 9 9 9 10 10 10 10 11 11 11 12 12 12 12 11 11 11 11 11 11 12
10 10 10 10 10 10 10 10 10 10 10 10 10 10 9 9 9 9 9 9 9 9 9 9 9 9 9 9 9 9 8 8 8 8 8 9 9 9 9 9 9 9 9 9 9 9 9 9 9 9 9 10 10 10 10 10 11 11 12 12 12 11 11 11 11 11 11 12 12
10 10 10 10 10 10 10 10 10 10 10 10 10 10 9 9 9 9 9 9 9 9 9 9 9 9 9 9 9 9 9 9 8 8 8 8 9 9 9 9 9 9 9 9 9 9 9 9 9 10 10 10 10 10 10 11 11 11 12 12 12 11 11 11 12 12 12 12 12
10 10 10 10 10 10 10 10 10 10 10 10 10 10 10 9 9 9 9 10 10 9 9 9 9 9 9 9 9 9 9 9 8 8 8 8 8 9 9 9 9 9 9 9 9 9 9 9 9 10 10 10 10 10 10 11 11 11 12 12 12 12 12 12 12 12 12 12 12
10 10 10 10 10 10 10 10 10 10 10 10 10 10 10 9 9 9 9 10 10 10 9 9 9 9 9 9 9 9 9 9 9 9 9 9 9 9 9 9 9 9 9 9 9 9 9 9 10 10 10 10 10 10 11 11 11 11 12 12 12 12 12 12 12 12 12 12 12
10 11 10 10 10 10 10 10 10 10 10 10 10 10 10 10 9 9 9 9 9 9 9 9 9 9 9 9 9 9 9 9 9 9 9 9 9 9 9 10 10 10 10 10 10 9 9 9 10 10 10 10 10 10 11 11 11 11 11 11 12 12 12 12 12 12 12 12 12
11 11 11 10 10 10 10 10 10 10 10 10 10 10 10 10 9 9 9 9 9 9 9 9 9 9 9 9 9 9 9 9 9 9 10 10 10 10 10 10 10 10 10 10 10 10 9 9 10 10 10 10 10 10 11 11 11 11 11 12 12 12 12 12 12 12 12 12 12
11 11 11 11 11 11 11 11 11 10 10 10 10 10 10 10 10 10 9 9 9 9 9 9 9 9 9 9 9 9 10 10 10 10 10 10 10 10 10 10 10 10 10 10 10 10 10 10 10 10 10 10 10 11 11 11 11 11 12 12 12 12 12 12 12 12 12 12 12
11 11 11 11 11 11 11 11 11 11 11 11 11 11 11 10 10 10 10 9 9 9 10 10 9 9 9 9 10 10 10 10 10 10 11 11 11 11 11 11 11 11 11 11 11 11 11 10 10 10 10 10 11 11 11 11 11 12 12 12 12 12 12 12 12 12 12 12 12
11 11 11 11 11 11 11 11 11 11 11 11 11 11 11 11 11 10 10 10 10 10 10 10 10 10 10 10 10 10 10 10 11 11 11 11 11 11 11 11 11 11 11 11 11 11 11 11 11 11 11 11 11 11 11 12 12 12 12 12 12 12 12 12 12 12 12 12 12
12 12 11 11 11 11 11 11 11 11 11 11 11 11 11 11 11 11 10 10 10 10 10 10 10 10 10 10 10 10 10 11 11 11 11 11 11 11 11 11 11 12 12 12 12 12 12 12 12 12 12 12 12 12 12 12 12 12 12 12 12 12 12 12 12 12 12 12 12
12 12 12 12 12 12 12 11 11 11 11 12 12 12 11 11 11 11 11 11 11 10 10 10 11 11 11 11 11 11 11 11 11 12 12 12 12 12 12 12 12 12 12 12 12 12 12 12 12 12 12 12 12 12 12 12 12 12 12 12 12 12 12 12 12 12 12 12 12
13 13 12 12 12 12 12 12 12 12 12 12 12 12 12 12 11 11 11 11 11 11 11 11 11 11 11 11 11 11 11 11 12 12 12 12 12 12 12 12 12 12 12 12 12 12 12 12 12 12 12 12 12 12 12 12 13 13 13 13 13 13 12 12 12 12 12 12 12
13 13 13 13 13 13 13 12 12 12 12 12 12 12 12 12 12 12 11 11 11 11 11 11 11 12 12 12 12 11 11 12 12 12 12 12 12 12 12 12 12 12 12 12 12 12 12 12 12 12 12 12 12 12 12 12 13 13 13 13 13 12 12 12 12 12 11 11 11
14 14 13 13 13 13 13 13 13 13 12 12 12 12 12 12 12 12 12 12 12 11 12 12 12 12 12 12 12 12 12 12 12 12 12 12 12 12 12 12 13 13 13 13 13 12 12 12 12 12 12 12 12 12 12 12 12 12 12 12 12 12 12 12 11 11 11 11 11
14 14 14 13 13 13 13 13 13 13 13 13 13 13 12 12 12 12 12 12 12 12 12 12 12 12 12 12 12 12 12 12 12 12 12 12 12 13 13 13 13 13 13 13 13 13 13 13 13 13 13 13 13 12 12 12 12 12 12 12 12 12 11 11 11 11 11 11 11
14 14 14 14 14 14 14 14 14 14 13 13 13 13 13 13 13 13 12 12 12 12 12 12 12 12 12 12 12 12 12 12 12 12 12 13 13 13 13 13 13 13 13 13 13 13 13 13 13 13 13 13 13 13 12 12 12 12 12 12 11 11 11 11 11 11 11 11 11
14 14 14 14 14 14 14 14 14 14 14 14 14 13 13 13 13 13 13 13 13 13 13 12 12 12 12 12 12 13 13 13 13 13 13 13 13 13 13 13 13 13 13 13 13 13 13 13 13 13 13 13 13 12 12 12 12 12 12 11 11 11 11 11 11 11 11 11 10
15 14 14 14 14 14 14 14 14 14 14 14 14 14 14 14 13 13 13 13 13 13 13 13 13 13 13 13 13 13 13 13 13 13 13 13 13 12 12 12 12 12 12 12 12 12 12 12 13 13 13 13 12 12 12 12 11 11 11 11 11 11 11 11 10 10 10 10 10
15 15 14 14 14 14 14 14 14 14 14 14 14 14 14 14 14 14 14 14 14 13 13 13 13 13 13 13 13 12 12 12 12 12 12 12 12 12 12 12 12 12 12 12 12 12 12 12 12 12 12 12 12 12 11 11 11 11 11 11 11 10 10 10 10 10 10 10 10
15 15 15 14 14 14 14 14 14 14 14 14 14 14 14 14 14 14 14 14 14 14 14 14 14 13 13 13 12 12 12 12 12 11 11 12 12 12 12 11 11 12 12 12 12 12 12 12 12 12 11 11 11 11 11 10 10 10 10 10 10 10 10 10 9 9 9 9 9
15 15 15 15 15 14 14 14 14 14 14 14 14 14 14 14 14 14 14 14 14 14 14 14 14 13 13 13 12 12 11 11 11 11 11 11 11 12 11 11 11 11 12 12 12 12 12 11 11 11 11 11 10 10 10 10 10 9 9 9 9 9 9 9 9 9 9 8 8
16 15 15 15 15 15 15 15 14 14 14 14 14 14 14 14 14 14 14 14 14 14 14 13 13 13 13 12 12 11 12 12 11 11 11 11 11 11 11 11 11 11 11 11 11 11 11 11 11 10 10 10 10 9 9 9 9 9 9 9 8 8 8 8 8 8 8 8 8
16 16 15 15 15 15 15 15 15 15 14 14 14 14 14 14 14 14 14 14 14 14 14 14 13 13 13 12 12 11 12 12 12 11 11 11 11 11 11 11 11 11 11 11 11 11 11 11 10 10 10 9 9 9 9 8 8 8 8 8 8 8 8 8 8 8 7 7 7
Height
1429 1430 1431 1432 1434 1435 1436 1437 1439 1440 1442 1444 1445 1447 1449 1450 1452 1453 1455 1456 1457 1459 1460 1461 1462 1463 1465 1466 1468 1470 1471 1474 1476 1479 1482 1484 1486 1488 1490 1491 1492 1493 1495 1496 1497 1499 1500 1501 1502 1503 1504 1505 1506 1508 1509 1510 1510 1511 1512 1513 1514 1515 1517 1518 1519 1520 1521 1521 1522
1428 1429 1430 1431 1433 1434 1435 1437 1438 1440 1441 1443 1444 1446 1447 1449 1450 1451 1453 1454 1455 1457 1459 1460 1461 1462 1464 1465 1467 1469 1470 1473 1475 1478 1480 1483 1485 1487 1488 1489 1490 1491 1493 1494 1495 1497 1498 1499 1500 1501 1502 1504 1505 1506 1507 1508 1509 1510 1511 1512 1513 1514 1515 1516 1517 1518 1519 1520 1521
1427 1428 1430 1431 1432 1433 1434 1435 1437 1438 1440 1442 1443 1444 1446 1447 1449 1450 1451 1452 1454 1456 1458 1459 1460 1461 1462 1464 1466 1468 1470 1472 1474 1477 1479 1481 1483 1485 1487 1488 1489 1490 1491 1492 1493 1495 1496 1497 1498 1499 1500 1501 1503 1504 1505 1506 1507 1508 1509 1510 1511 1513 1514 1515 1516 1517 1518 1519 1520
1426 1427 1429 1430 1430 1432 1433 1434 1436 1437 1439 1440 1441 1443 1444 1446 1447 1449 1450 1451 1453 1454 1455 1457 1458 1460 1461 1463 1465 1467 1469 1471 1473 1476 1478 1480 1482 1484 1485 1486 1487 1488 1489 1490 1491 1493 1494 1495 1496 1497 1498 1500 1501 1502 1503 1504 1505 1506 1507 1509 1510 1511 1512 1513 1514 1515 1516 1517 1518
1425 1426 1427 1428 1429 1430 1432 1433 1435 1436 1438 1439 1440 1441 1443 1445 1446 1447 1449 1450 1451 1452 1453 1455 1457 1459 1461 1463 1465 1467 1468 1470 1472 1474 1476 1479 1480 1482 1484 1485 1486 1487 1488 1489 1490 1491 1492 1493 1494 1495 1496 1498 1499 1500 1501 1502 1504 1505 1506 1507 1508 1509 1510 1511 1512 1513 1514 1515 1516
1424 1425 1426 1427 1429 1430 1431 1432 1434 1435 1436 1438 1439 1440 1441 1443 1444 1445 1447 1448 1449 1450 1452 1454 1456 1458 1460 1462 1464 1465 1467 1469 1470 1472 1475 1477 1479 1480 1482 1484 1485 1485 1486 1487 1488 1489 1490 1491 1492 1493 1495 1496 1497 1498 1500 1501 1502 1503 1504 1505 1506 1508 1509 1510 1511 1512 1513 1513 1514
1422 1423 1425 1426 1427 1429 1430 1431 1433 1434 1435 1436 1437 1438 1439 1441 1442 1444 1445 1446 1448 1450 1451 1453 1455 1457 1459 1460 1462 1464 1465 1466 1468 1470 1471 1474 1476 1479 1480 1482 1483 1484 1485 1485 1486 1487 1488 1489 1490 1491 1492 1494 1495 1496 1498 1499 1500 1501 1502 1504 1505 1506 1507 1508 1509 1510 1511 1511 1512
1421 1422 1423 1425 1426 1427 1429 1430 1431 1432 1434 1435 1435 1436 1438 1439 1440 1442 1444 1445 1447 1448 1450 1452 1454 1455 1457 1459 1460 1461 1462 1464 1465 1466 1468 1470 1473 1475 1478 1480 1481 1482 1483 1484 1485 1485 1486 1487 1488 1489 1490 1492 1493 1495 1496 1497 1498 1500 1501 1502 1504 1505 1506 1507 1508 1508 1509 1510 1510
1420 1421 1422 1424 1425 1426 1427 1428 1430 1431 1432 1433 1434 1435 1436 1438 1439 1441 1443 1444 1446 1447 1449 1451 1452 1454 1456 1457 1458 1459 1460 1461 1462 1464 1466 1468 1470 1473 1475 1478 1479 1480 1481 1482 1483 1484 1485 1486 1487 1488 1489 1490 1491 1493 1494 1495 1497 1498 1499 1501 1502 1503 1504 1505 1506 1506 1507 1507 1508
1419 1420 1421 1423 1424 1425 1426 1427 1429 1430 1431 1432 1433 1434 1435 1437 1438 1440 1441 1443 1445 1446 1448 1450 1451 1453 1454 1455 1456 1457 1458 1460 1461 1463 1465 1467 1469 1471 1474 1475 1477 1478 1479 1480 1481 1483 1484 1485 1485 1486 1487 1489 1490 1491 1493 1494 1495 1497 1498 1500 1501 1502 1502 1503 1504 1504 1505 1505 1506
1418 1419 1420 1421 1422 1424 1425 1426 1428 1429 1430 1431 1432 1433 1435 1435 1437 1438 1440 1442 1444 1445 1446 1448 1450 1451 1452 1453 1454 1455 1457 1459 1461 1463 1465 1466 1468 1470 1473 1474 1475 1476 1477 1478 1480 1481 1482 1483 1484 1485 1486 1487 1489 1490 1491 1493 1495 1496 1497 1498 1499 1500 1500 1501 1502 1502 1503 1503 1504
1417 1418 1419 1420 1421 1423 1424 1425 1427 1428 1429 1430 1431 1432 1433 1435 1435 1437 1439 1440 1442 1443 1445 1447 1448 1449 1450 1451 1453 1455 1456 1458 1460 1462 1464 1465 1467 1470 1471 1473 1474 1475 1476 1477 1477 1479 1480 1481 1483 1484 1485 1486 1487 1489 1490 1492 1493 1495 1496 1497 1498 1498 1499 1500 1500 1501 1501 1502 1502
1416 1417 1418 1419 1420 1422 1423 1425 1425 1427 1428 1429 1430 1431 1432 1433 1435 1436 1438 1439 1440 1442 1444 1445 1447 1448 1449 1450 1452 1454 1455 1457 1459 1461 1463 1465 1466 1468 1470 1471 1472 1473 1474 1475 1475 1476 1478 1480 1481 1483 1484 1485 1486 1487 1489 1490 1492 1493 1494 1495 1496 1497 1497 1498 1499 1499 1500 1500 1500
1415 1416 1417 1419 1420 1421 1422 1424 1425 1425 1427 1428 1429 1430 1431 1433 1434 1435 1437 1438 1440 1441 1443 1445 1446 1447 1449 1450 1451 1453 1455 1456 1458 1460 1462 1463 1465 1467 1468 1469 1470 1472 1473 1474 1474 1475 1476 1478 1480 1481 1482 1484 1485 1486 1487 1489 1490 1492 1493 1494 1494 1495 1495 1496 1497 1498 1498 1498 1498
1414 1415 1417 1418 1419 1420 1421 1422 1424 1425 1425 1427 1428 1429 1430 1432 1433 1434 1435 1437 1439 1440 1442 1443 1445 1446 1448 1449 1451 1452 1454 1455 1457 1459 1460 1462 1464 1465 1466 1467 1468 1469 1471 1472 1473 1474 1475 1476 1478 1480 1481 1482 1483 1485 1486 1488 1489 1490 1491 1492 1492 1493 1494 1495 1495 1496 1496 1496 1497
1413 1415 1416 1417 1418 1419 1420 1421 1422 1423 1424 1425 1427 1428 1430 1431 1432 1433 1435 1436 1438 1440 1441 1442 1443 1445 1446 1448 1450 1451 1453 1455 1456 1457 1459 1460 1462 1464 1465 1465 1466 1467 1469 1470 1471 1473 1474 1475 1476 1478 1479 1481 1482 1483 1485 1486 1487 1489 1490 1490 1491 1491 1492 1493 1494 1494 1495 1495 1495
1412 1413 1415 1415 1416 1417 1419 1420 1421 1422 1423 1424 1426 1427 1429 1430 1431 1432 1433 1435 1437 1438 1440 1441 1442 1444 1445 1447 1449 1450 1452 1453 1455 1456 1457 1459 1460 1462 1463 1464 1464 1465 1467 1468 1470 1471 1472 1474 1475 1476 1478 1479 1480 1482 1483 1484 1486 1487 1488 1489 1489 1490 1490 1491 1492 1492 1493 1493 1494
1411 1412 1413 1414 1415 1416 1417 1419 1420 1421 1422 1423 1425 1426 1427 1429 1430 1431 1432 1434 1435 1437 1438 1440 1441 1443 1444 1445 1447 1449 1450 1451 1453 1454 1455 1457 1458 1460 1461 1462 1463 1464 1465 1467 1468 1469 1471 1472 1473 1475 1476 1477 1479 1480 1481 1482 1484 1485 1486 1487 1487 1488 1489 1490 1490 1491 1491 1492 1492
1410 1410 1412 1413 1413 1415 1416 1417 1419 1420 1421 1422 1424 1425 1426 1427 1429 1430 1431 1433 1434 1435 1437 1439 1440 1441 1443 1444 1445 1447 1448 1450 1451 1453 1454 1455 1456 1458 1459 1460 1461 1463 1464 1465 1466 1468 1469 1470 1472 1473 1474 1475 1477 1478 1480 1480 1482 1483 1484 1485 1485 1486 1487 1488 1488 1489 1490 1490 1490
1408 1409 1410 1411 1412 1413 1415 1416 1418 1419 1420 1421 1422 1424 1425 1426 1427 1429 1430 1431 1432 1434 1436 1437 1439 1440 1441 1442 1444 1445 1446 1448 1449 1451 1452 1454 1455 1456 1457 1458 1460 1461 1462 1464 1465 1466 1467 1469 1470 1471 1473 1474 1475 1476 1478 1479 1480 1481 1482 1483 1483 1484 1485 1485 1486 1487 1487 1488 1488
1407 1408 1409 1410 1411 1412 1414 1415 1417 1418 1419 1420 1421 1422 1424 1425 1426 1427 1428 1430 1431 1433 1434 1436 1437 1438 1440 1441 1442 1444 1445 1446 1448 1449 1450 1452 1453 1454 1455 1457 1458 1459 1460 1462 1463 1464 1465 1467 1468 1470 1471 1472 1473 1475 1476 1477 1478 1479 1480 1481 1481 1482 1483 1484 1484 1485 1485 1486 1486
1406 1407 1408 1410 1410 1412 1413 1415 1416 1417 1418 1419 1420 1421 1423 1424 1425 1426 1427 1429 1430 1431 1433 1434 1435 1437 1438 1439 1440 1442 1443 1445 1446 1447 1449 1450 1451 1453 1454 1455 1456 1458 1459 1460 1461 1462 1464 1465 1466 1468 1469 1470 1471 1472 1474 1475 1476 1477 1478 1479 1480 1480 1481 1482 1482 1483 1483 1484 1484
1405 1407 1408 1409 1410 1411 1412 1414 1415 1416 1417 1418 1420 1420 1422 1423 1424 1425 1427 1428 1429 1430 1431 1433 1434 1435 1437 1438 1440 1441 1442 1443 1445 1446 1447 1449 1450 1451 1452 1453 1454 1455 1456 1457 1458 1460 1461 1462 1464 1465 1467 1468 1469 1470 1472 1473 1474 1475 1476 1477 1478 1479 1479 1480 1480 1480 1481 1482 1482
1405 1406 1407 1409 1410 1411 1412 1413 1415 1415 1416 1417 1419 1420 1421 1422 1424 1425 1426 1427 1428 1429 1430 1432 1433 1434 1436 1437 1439 1440 1441 1442 1443 1445 1446 1447 1448 1449 1450 1451 1452 1453 1454 1455 1455 1457 1458 1460 1461 1463 1464 1466 1467 1468 1470 1471 1472 1473 1474 1475 1476 1477 1477 1478 1478 1479 1480 1480 1481
1404 1405 1406 1408 1409 1410 1411 1412 1413 1414 1415 1416 1418 1419 1420 1421 1423 1424 1425 1426 1427 1428 1429 1430 1432 1433 1435 1436 1438 1439 1440 1441 1442 1443 1444 1445 1447 1448 1449 1450 1450 1451 1452 1453 1454 1455 1456 1457 1459 1460 1462 1464 1465 1466 1468 1469 1470 1471 1472 1473 1474 1475 1475 1476 1477 1477 1478 1479 1479
1403 1404 1405 1406 1408 1409 1410 1411 1412 1413 1415 1415 1417 1418 1419 1420 1422 1423 1424 1425 1426 1427 1428 1430 1431 1432 1434 1435 1436 1438 1439 1440 1441 1442 1443 1444 1445 1446 1447 1448 1449 1450 1450 1451 1452 1454 1455 1456 1457 1458 1460 1462 1463 1465 1466 1467 1468 1469 1470 1471 1472 1473 1474 1474 1475 1475 1476 1477 1477
1401 1403 1404 1405 1406 1408 1409 1410 1411 1412 1414 1415 1416 1417 1418 1419 1420 1422 1423 1424 1425 1426 1428 1429 1430 1431 1433 1434 1435 1436 1438 1439 1440 1441 1442 1443 1444 1445 1446 1446 1447 1448 1449 1450 1451 1452 1453 1454 1455 1457 1458 1460 1461 1462 1464 1465 1466 1467 1468 1469 1470 1471 1471 1472 1473 1474 1474 1475 1475
1400 1401 1403 1404 1405 1406 1407 1409 1410 1411 1412 1413 1415 1416 1417 1418 1420 1420 1422 1423 1424 1425 1427 1428 1429 1430 1432 1433 1434 1435 1436 1437 1439 1440 1441 1442 1443 1444 1444 1445 1446 1446 1447 1449 1450 1451 1452 1453 1454 1455 1457 1458 1459 1460 1462 1463 1464 1465 1466 1467 1467 1468 1469 1470 1470 1471 1472 1472 1472
1398 1400 1401 1403 1404 1405 1406 1407 1408 1409 1410 1412 1413 1415 1416 1417 1418 1419 1420 1422 1423 1424 1425 1427 1428 1429 1430 1431 1433 1434 1435 1436 1438 1439 1440 1441 1442 1443 1443 1444 1445 1445 1446 1448 1449 1450 1450 1451 1453 1454 1455 1456 1457 1459 1460 1461 1462 1463 1464 1464 1465 1466 1467 1468 1468 1469 1469 1469 1469
1397 1399 1400 1401 1403 1404 1405 1406 1407 1408 1410 1411 1412 1414 1415 1416 1417 1418 1419 1420 1422 1423 1424 1425 1427 1428 1429 1430 1432 1433 1435 1436 1437 1438 1439 1440 1441 1442 1443 1444 1445 1445 1446 1447 1448 1449 1450 1451 1452 1453 1454 1455 1456 1457 1458 1460 1460 1461 1462 1463 1464 1464 1465 1465 1466 1466 1466 1467 1467
1395 1397 1398 1400 1401 1403 1404 1405 1406 1407 1409 1410 1411 1412 1414 1415 1415 1417 1418 1419 1420 1422 1424 1425 1426 1427 1429 1430 1431 1433 1434 1435 1437 1438 1439 1440 1440 1441 1443 1444 1445 1446 1447 1448 1449 1449 1450 1450 1451 1452 1454 1455 1456 1457 1458 1459 1460 1460 1461 1462 1462 1463 1463 1463 1463 1463 1464 1464 1464
1394 1395 1397 1398 1400 1401 1403 1404 1405 1406 1408 1409 1410 1411 1412 1413 1414 1415 1417 1419 1420 1422 1423 1424 1425 1427 1428 1430 1431 1432 1434 1435 1436 1437 1438 1439 1440 1441 1443 1444 1445 1446 1446 1447 1448 1448 1449 1450 1451 1452 1453 1454 1455 1456 1457 1457 1458 1459 1460 1460 1460 1460 1460 1460 1460 1460 1460 1460 1461
1392 1394 1395 1397 1398 1400 1402 1403 1405 1405 1407 1408 1409 1410 1411 1412 1414 1415 1417 1418 1420 1421 1422 1423 1425 1426 1427 1429 1430 1431 1433 1434 1435 1436 1437 1439 1440 1441 1442 1443 1444 1444 1443 1444 1445 1446 1447 1449 1450 1451 1452 1453 1454 1455 1455 1455 1456 1457 1457 1457 1456 1456 1456 1456 1457 1457 1457 1458 1458
1391 1392 1394 1395 1397 1399 1400 1402 1404 1405 1406 1407 1408 1409 1410 1412 1414 1415 1416 1418 1419 1420 1421 1422 1423 1425 1426 1428 1429 1430 1432 1433 1434 1435 1436 1438 1439 1440 1441 1441 1441 1440 1441 1442 1443 1444 1445 1447 1448 1450 1450 1452 1452 1453 1453 1453 1454 1454 1454 1454 1453 1453 1454 1454 1455 1455 1455 1456 1456
1389 1391 1392 1394 1396 1398 1400 1401 1403 1404 1405 1406 1407 1409 1410 1412 1413 1415 1416 1417 1418 1420 1420 1422 1423 1424 1426 1427 1428 1430 1431 1432 1433 1434 1435 1437 1438 1439 1440 1439 1438 1438 1439 1440 1441 1442 1444 1445 1447 1448 1449 1450 1451 1451 1451 1451 1451 1451 1450 1450 1451 1451 1451 1452 1452 1453 1453 1454 1454
1388 1390 1391 1393 1395 1396 1398 1400 1402 1403 1405 1406 1407 1408 1410 1411 1413 1415 1416 1417 1419 1420 1420 1421 1423 1424 1425 1426 1427 1429 1430 1431 1432 1434 1435 1436 1437 1437 1437 1436 1435 1435 1435 1437 1439 1440 1442 1444 1445 1446 1447 1448 1449 1449 1449 1449 1448 1448 1448 1448 1449 1449 1450 1450 1450 1451 1451 1452 1452
1387 1388 1390 1392 1394 1395 1397 1399 1401 1403 1404 1405 1407 1409 1410 1411 1413 1415 1416 1417 1418 1419 1420 1421 1422 1423 1424 1425 1427 1429 1430 1430 1431 1432 1433 1433 1433 1433 1433 1432 1431 1431 1432 1435 1436 1438 1440 1441 1443 1444 1445 1446 1446 1446 1446 1446 1445 1445 1446 1446 1447 1447 1447 1448 1448 1449 1449 1449 1450
1386 1387 1389 1391 1393 1395 1396 1398 1400 1402 1403 1405 1407 1409 1410 1411 1413 1414 1415 1417 1418 1419 1420 1420 1421 1423 1424 1425 1426 1426 1426 1426 1427 1428 1428 1428 1428 1429 1429 1428 1428 1428 1430 1433 1435 1436 1438 1439 1440 1442 1443 1443 1443 1443 1443 1443 1443 1443 1443 1444 1444 1445 1445 1445 1446 1446 1447 1447 1447
1385 1387 1388 1390 1392 1394 1395 1397 1399 1401 1403 1405 1406 1408 1410 1411 1412 1414 1415 1416 1417 1418 1419 1420 1420 1421 1421 1421 1420 1420 1420 1421 1422 1423 1423 1424 1425 1425 1425 1425 1426 1427 1429 1431 1433 1434 1436 1437 1438 1439 1440 1440 1440 1440 1440 1440 1440 1440 1441 1442 1442 1442 1443 1443 1444 1444 1444 1445 1445
1385 1386 1388 1389 1391 1393 1395 1396 1398 1400 1402 1404 1406 1407 1409 1411 1412 1413 1414 1414 1415 1416 1416 1416 1416 1416 1416 1416 1416 1416 1417 1418 1419 1420 1421 1421 1422 1423 1423 1424 1424 1425 1427 1429 1431 1432 1434 1435 1435 1436 1437 1437 1437 1437 1437 1437 1438 1439 1440 1440 1440 1440 1441 1441 1442 1442 1442 1443 1443
1384 1385 1387 1388 1390 1391 1393 1395 1397 1399 1401 1403 1405 1406 1408 1410 1411 1411 1410 1411 1411 1411 1412 1412 1413 1413 1413 1414 1413 1414 1415 1416 1418 1418 1419 1419 1420 1421 1421 1422 1422 1424 1425 1427 1429 1430 1431 1432 1433 1434 1435 1435 1435 1435 1435 1435 1437 1437 1438 1438 1438 1439 1439 1440 1440 1440 1440 1441 1441
Wind_Speed
35 36 36 36 37 36 36 36 37 36 35 36 37 39 41 42 43 44 47 52 52 49 44 41 39 38 37 37 38 40 40 38 38 38 39 38 38 37 37 39 39 40 39 38 36 35 34 34 34 34 34 34 33 32 32 32 32 32 32 31 29 28 27 27 28 29 29 29 28
35 35 36 36 36 36 36 36 36 35 35 34 35 37 39 42 43 44 46 50 52 50 47 44 41 37 35 33 34 35 36 36 37 37 38 38 38 37 37 38 38 38 38 37 36 35 35 34 34 34 34 33 33 32 32 32 32 32 31 30 29 28 28 28 29 29 29 29 29
35 35 35 36 36 36 36 36 36 35 34 34 34 36 38 41 43 44 45 47 49 48 47 47 44 39 35 33 32 33 34 36 36 37 38 39 39 38 38 38 38 38 37 37 36 35 35 34 34 34 34 33 33 32 32 31 31 31 30 29 28 28 28 29 29 30 30 30 29
35 35 35 35 35 35 35 35 35 35 34 35 35 36 38 40 43 44 44 44 45 46 47 47 45 41 37 34 32 32 34 36 36 36 38 39 40 40 39 38 38 38 37 36 36 35 35 34 34 34 33 33 32 31 30 30 30 29 29 28 28 28 28 29 29 30 30 30 29
34 34 34 34 34 34 34 34 34 34 35 35 36 36 37 39 42 43 43 43 43 45 46 47 45 42 38 35 33 33 34 36 36 36 37 39 40 40 40 39 38 38 37 36 36 35 35 34 34 34 33 32 31 30 29 29 28 28 28 28 28 28 28 29 29 29 29 29 29
33 33 32 32 32 33 33 33 34 34 34 35 36 37 38 39 41 43 44 44 44 45 45 45 44 42 39 36 34 34 34 36 36 36 36 37 39 41 41 40 39 37 37 36 36 35 35 35 34 34 32 31 29 28 28 27 27 27 27 27 27 27 28 28 28 29 29 29 29
33 32 31 31 31 32 33 33 33 34 34 35 36 37 38 39 41 43 44 45 44 45 45 45 43 41 38 36 34 34 35 36 38 38 37 36 37 40 42 42 40 38 37 36 36 35 35 35 35 34 32 30 29 27 27 26 26 26 26 26 26 26 27 27 28 28 29 29 30
32 31 30 30 30 32 33 33 33 34 34 35 35 36 37 38 39 42 44 45 45 45 46 45 43 40 37 34 33 33 35 38 40 41 40 38 36 37 40 42 42 40 38 36 36 35 35 35 35 33 31 30 28 27 26 26 26 26 25 25 25 25 26 27 27 28 29 30 31
32 31 30 30 30 31 32 33 33 33 34 34 34 35 36 37 38 40 43 45 46 46 46 45 43 39 35 33 32 34 36 39 41 41 41 39 36 35 37 40 42 41 39 37 36 35 35 35 34 33 31 29 27 26 26 26 26 25 24 24 24 26 27 27 28 29 30 31 32
33 32 31 31 31 31 32 32 32 32 33 33 34 34 35 37 38 40 42 45 46 47 47 45 43 38 35 33 34 35 37 39 40 40 39 38 36 33 33 37 40 41 40 38 36 34 34 34 34 32 30 29 27 26 26 25 25 24 24 24 26 27 28 29 29 30 31 32 34
33 33 32 32 31 31 32 32 31 31 32 33 34 35 36 37 38 40 41 43 45 47 47 46 43 40 37 36 36 37 37 39 40 40 39 37 35 32 32 34 38 40 40 37 35 34 33 33 33 32 31 29 28 27 26 25 24 24 25 26 27 29 30 31 31 32 33 34 35
34 33 32 32 32 31 31 31 31 31 32 33 34 35 37 38 39 40 41 43 45 46 47 46 44 42 41 40 39 38 38 39 40 40 39 37 35 32 31 33 36 38 39 38 36 34 33 33 32 32 31 30 29 27 26 25 25 26 27 28 29 30 31 32 33 34 34 35 36
33 33 33 32 32 31 31 31 31 32 33 34 34 35 37 38 39 40 41 42 44 45 45 45 45 44 43 42 41 39 39 39 40 40 39 37 35 33 32 32 34 36 37 37 36 35 35 33 31 30 30 29 28 27 26 26 26 28 29 30 31 32 33 34 35 35 36 36 36
33 33 33 33 32 31 31 31 31 32 33 33 34 35 36 37 39 40 41 42 43 43 44 44 45 44 43 42 40 39 39 40 40 40 38 36 34 33 33 32 33 34 35 35 36 35 35 34 33 31 30 30 29 29 28 28 29 29 31 32 33 34 35 35 36 37 37 37 36
32 32 32 32 32 31 31 31 31 32 32 33 34 34 35 36 38 39 40 41 42 43 43 44 44 44 43 41 39 37 38 39 40 39 38 36 34 33 33 33 33 33 33 33 34 34 34 34 33 33 32 31 31 31 31 31 31 32 32 33 34 35 36 37 37 37 37 37 36
32 32 32 32 31 31 30 30 31 32 32 32 33 34 35 36 37 38 40 41 41 42 43 44 44 44 42 40 38 36 35 36 38 38 38 37 35 34 33 34 35 34 33 32 32 31 31 31 32 32 32 32 32 32 33 34 34 34 34 35 35 36 36 37 38 38 38 37 36
32 31 31 31 30 30 30 30 31 31 32 31 32 32 33 34 35 36 38 39 40 41 42 43 44 43 42 41 39 36 34 34 35 37 38 38 37 36 35 35 36 36 35 33 32 30 30 30 30 30 31 31 32 33 33 34 35 35 36 36 37 37 37 37 38 38 38 37 37
31 31 30 30 30 30 29 30 30 30 30 30 30 31 31 32 33 34 35 36 38 39 41 42 43 43 42 41 40 38 36 34 34 35 37 38 39 38 38 37 37 37 36 35 34 32 31 30 30 30 30 31 32 33 34 35 36 36 37 37 38 38 37 37 38 38 38 38 38
31 30 30 30 30 30 29 29 29 29 29 28 28 29 30 30 31 31 32 32 34 36 38 39 41 42 42 42 42 41 39 37 35 34 35 36 38 39 39 39 39 38 37 37 36 35 34 32 32 31 32 32 33 34 34 35 36 37 38 39 39 38 38 37 38 38 39 39 38
31 31 31 31 31 30 29 28 28 28 27 27 27 27 28 29 29 29 30 30 30 31 34 36 38 40 41 41 41 41 41 40 38 36 34 35 36 37 39 40 40 41 40 40 39 38 37 36 35 34 34 34 35 35 36 36 37 38 39 40 40 39 38 38 38 39 39 38 38
31 31 31 31 31 30 29 27 27 27 27 26 26 26 27 28 28 28 28 28 27 28 30 33 36 38 39 40 40 40 40 40 39 38 36 36 36 37 39 40 42 44 44 44 43 42 41 40 39 38 37 36 37 37 38 38 39 39 40 41 41 39 38 38 38 39 39 38 37
32 31 31 31 30 29 28 27 26 26 27 26 26 26 26 27 28 28 27 26 26 27 29 32 34 36 37 38 37 37 38 39 40 39 39 38 38 38 38 40 42 44 45 47 47 47 45 44 42 41 40 39 39 39 39 40 40 41 41 42 41 40 39 39 39 39 38 37 36
32 31 30 30 30 29 28 27 26 26 27 27 26 26 26 27 27 27 27 27 27 28 29 31 33 35 35 35 35 35 35 36 37 38 38 38 38 37 37 37 38 40 42 44 45 46 46 45 44 43 42 41 40 40 41 41 42 42 42 42 41 40 40 40 40 39 38 37 35
32 31 30 30 30 29 28 27 27 28 28 28 27 26 26 26 27 28 28 28 28 29 29 31 32 33 33 33 32 32 32 32 33 33 34 35 34 34 34 34 34 35 36 37 39 42 43 44 44 43 43 42 41 41 42 42 42 42 42 42 41 41 41 41 40 39 38 37 35
32 31 31 31 30 30 29 29 29 30 29 29 28 27 26 26 27 28 29 29 29 29 29 30 30 31 31 31 31 30 29 29 29 30 30 31 31 31 31 31 32 32 32 32 33 35 38 40 42 43 43 42 42 42 42 42 42 42 42 42 42 41 41 41 40 40 38 37 36
32 32 31 31 31 31 31 31 31 30 30 29 28 27 26 26 27 28 29 30 30 29 28 28 29 29 30 30 30 30 29 28 28 28 28 28 28 29 30 30 30 30 30 30 30 31 33 35 38 40 41 42 42 42 42 42 42 42 42 41 41 41 41 41 40 40 39 38 37
33 33 32 32 31 31 31 31 31 30 30 29 29 27 26 26 26 27 29 30 29 29 28 27 27 28 29 30 31 31 30 30 29 28 27 27 28 29 30 30 30 30 29 29 28 28 29 31 33 36 38 40 41 42 42 42 41 40 40 39 39 39 39 39 39 39 39 39 39
33 34 33 32 32 32 31 31 31 30 30 29 29 27 26 25 26 26 28 29 29 28 28 27 27 27 28 30 31 32 31 31 29 28 28 27 28 29 30 31 31 30 29 28 28 28 28 29 31 32 34 36 38 39 39 39 38 38 37 37 37 37 37 38 38 39 39 40 40
33 34 34 33 33 32 31 31 31 30 30 29 28 27 26 26 26 26 27 28 29 29 29 28 27 27 28 30 31 32 32 31 30 29 28 28 28 29 30 31 32 31 30 30 29 29 29 30 31 31 33 34 35 36 36 36 36 36 36 36 36 36 37 37 38 39 40 41 41
32 33 34 34 33 33 32 32 31 30 29 28 27 27 27 27 27 27 27 28 29 29 29 28 28 28 29 30 30 31 32 32 31 30 30 30 30 30 31 32 32 32 31 31 31 31 32 32 33 34 34 35 35 35 35 36 36 36 36 36 36 37 38 38 39 40 40 40 40
31 32 33 34 34 33 33 32 31 30 29 29 28 28 28 28 28 28 28 29 29 29 29 28 28 28 28 29 29 30 31 31 31 31 31 31 31 31 31 31 31 31 30 30 30 31 32 32 33 34 34 35 35 35 35 35 35 35 36 36 36 37 37 38 38 38 38 39 39
31 32 32 33 34 34 33 33 32 31 30 29 29 29 29 29 28 28 28 28 29 29 29 29 29 29 28 28 29 30 30 31 31 31 31 31 31 30 30 30 30 31 30 30 30 30 30 30 30 31 31 31 31 32 31 31 31 32 33 33 34 34 35 36 36 37 38 38 39
32 32 33 33 34 34 34 33 32 32 31 30 30 30 30 29 29 28 28 28 29 30 30 30 30 30 29 29 29 30 30 31 31 31 30 30 30 29 29 30 31 32 33 33 33 32 31 30 29 29 29 29 29 28 28 28 27 27 28 30 31 32 34 35 36 37 37 38 39
33 33 33 34 34 34 34 33 33 32 32 31 31 31 30 30 29 29 29 29 29 30 30 31 31 30 30 29 29 30 30 31 32 32 31 31 30 29 29 30 32 34 35 35 35 35 34 33 32 31 30 29 29 29 28 27 26 27 27 29 31 32 33 34 35 36 37 38 38
34 34 35 35 35 35 35 34 33 32 32 32 32 31 31 30 29 29 29 29 29 30 30 30 30 30 30 29 29 29 30 31 31 32 33 32 32 31 31 32 33 35 36 36 36 36 36 36 35 34 33 33 32 31 29 28 28 29 30 31 32 33 34 34 35 35 36 36 36
35 35 35 35 35 36 35 35 34 33 32 32 32 31 31 30 29 29 28 29 29 29 30 30 30 30 30 30 30 30 30 31 32 32 33 33 34 33 34 34 35 37 38 38 38 37 37 37 37 37 36 36 34 33 32 31 31 32 33 33 33 34 34 34 34 34 35 35 35
35 35 36 36 36 36 36 36 35 34 33 31 31 30 30 29 28 28 28 28 28 29 29 29 29 29 30 30 29 29 30 31 32 32 33 35 36 35 35 35 37 39 40 39 39 38 38 37 37 37 37 36 35 34 33 32 33 33 33 33 34 34 34 34 34 34 33 33 34
35 35 35 35 35 35 35 36 36 35 34 31 29 28 28 27 27 27 27 27 28 28 28 28 28 28 28 29 29 28 28 30 31 31 32 35 37 37 36 35 37 39 40 39 39 38 37 36 35 35 34 33 33 32 32 31 32 32 32 32 33 33 33 33 33 33 33 33 33
34 34 34 34 34 34 34 35 35 36 35 32 29 27 26 25 25 26 26 27 27 26 26 26 28 28 29 31 31 30 30 30 31 32 32 33 36 37 36 36 37 38 39 38 37 36 35 34 32 31 31 30 30 30 30 30 29 30 30 30 31 31 32 32 32 32 32 32 32
33 33 33 32 32 32 32 32 33 34 35 33 31 28 26 24 23 23 24 26 27 27 28 29 30 32 32 32 31 31 32 32 33 33 34 34 36 37 37 37 37 37 37 36 34 33 32 31 30 29 28 28 28 28 28 28 27 27 28 29 29 29 29 30 31 31 31 31 31
31 31 31 31 31 30 30 30 30 31 32 33 33 31 28 25 23 23 25 27 28 30 30 31 31 32 33 33 33 33 33 33 33 33 34 35 35 36 37 37 37 36 36 34 32 31 30 30 29 28 28 28 27 27 26 25 25 25 26 27 28 28 28 29 30 30 30 29 28
Wind_Direction
214 215 215 215 215 215 214 213 211 209 207 206 205 205 206 206 205 203 203 203 203 201 197 190 186 184 184 186 188 189 190 191 193 195 198 200 202 204 207 211 213 214 215 215 215 215 215 215 214 214 215 217 220 223 225 227 228 229 230 233 235 237 240 242 243 244 244 244 245
214 215 216 216 216 216 215 213 212 210 209 208 208 208 209 208 206 204 204 204 205 205 202 198 194 190 188 188 190 191 192 193 195 197 199 201 203 205 208 212 214 215 215 215 216 216 216 215 215 214 215 217 219 222 225 227 228 230 232 234 236 239 241 243 244 245 245 245 246
213 215 215 216 216 216 215 213 213 212 211 210 211 212 212 210 208 205 204 204 205 205 204 202 201 198 195 192 193 194 195 195 197 199 201 203 205 207 210 213 215 217 217 217 217 217 216 216 215 215 215 217 219 221 224 226 228 230 233 235 237 239 241 243 244 245 245 245 246
213 214 215 215 216 216 216 215 215 215 215 214 214 214 213 212 209 206 204 203 202 202 203 204 204 202 199 195 194 195 197 197 199 201 203 204 206 207 210 213 216 218 219 219 218 218 217 216 215 215 216 217 219 221 224 226 228 231 233 235 237 238 240 242 244 244 244 245 245
212 213 214 216 217 217 217 218 217 217 217 217 216 215 214 211 209 207 204 202 200 200 201 203 203 202 200 197 196 196 198 199 200 202 205 207 208 209 211 213 215 217 219 220 219 219 218 216 215 216 216 218 220 222 224 226 229 231 233 235 236 237 239 242 243 243 244 244 245
210 212 214 215 217 217 218 218 218 219 219 218 218 216 215 212 210 207 205 203 201 200 200 200 199 199 198 198 197 197 198 198 200 202 206 209 210 210 211 213 214 216 218 219 219 219 218 216 215 215 216 217 219 222 225 227 229 231 232 233 234 236 239 241 242 243 243 244 245
210 211 212 214 215 216 217 218 219 219 219 218 218 217 216 214 212 209 207 205 201 199 197 196 196 197 197 197 197 197 198 198 199 200 203 208 211 213 213 213 214 215 216 218 218 218 217 215 214 213 214 216 218 221 224 226 228 230 231 232 235 237 239 241 242 242 243 243 245
210 212 212 213 214 216 217 218 219 219 219 218 218 219 219 217 214 211 208 205 201 197 196 195 196 196 196 197 197 198 199 199 199 199 200 203 208 212 214 215 215 216 216 216 216 216 214 213 211 211 212 214 216 219 222 225 227 229 230 234 238 240 241 242 242 242 243 245 246
209 211 213 213 214 216 217 218 219 219 218 218 219 220 221 219 217 214 209 205 201 198 197 196 196 196 197 198 200 201 202 201 200 199 199 200 203 208 212 214 215 215 214 214 214 213 211 209 208 209 211 212 215 218 221 224 226 228 231 236 241 244 245 244 244 244 246 247 248
206 209 211 213 214 216 217 218 219 220 220 220 221 221 222 221 219 216 211 207 203 201 199 199 198 198 200 202 204 205 204 202 201 199 199 199 200 203 208 211 213 213 212 210 209 208 206 205 205 207 209 211 214 217 220 223 226 229 233 238 242 245 246 247 247 248 248 249 250
206 208 210 211 213 215 216 217 218 220 220 221 221 222 221 221 219 216 212 209 205 203 202 202 201 202 203 206 207 208 206 204 202 200 200 199 198 199 203 207 209 211 210 206 203 202 201 201 202 205 207 210 213 216 220 224 229 234 237 240 243 244 246 248 250 250 251 251 252
207 208 209 211 212 214 215 216 217 218 219 220 221 220 220 219 219 216 213 209 207 206 205 205 204 205 206 208 209 209 207 205 203 201 201 200 198 198 199 202 205 207 207 203 200 198 198 199 201 203 206 209 212 216 221 227 233 238 240 242 244 245 246 248 250 251 251 251 251
208 208 209 211 212 213 214 215 216 217 218 218 219 218 218 218 218 216 213 210 209 208 207 207 207 207 209 210 211 210 208 206 203 201 200 200 199 199 199 200 202 204 204 202 201 200 201 203 204 205 208 212 215 220 225 231 236 240 242 244 245 245 246 248 250 251 251 250 250
208 209 209 210 212 213 214 214 215 215 216 216 216 216 216 216 216 215 214 212 211 209 208 207 208 209 210 211 212 212 210 207 204 202 200 201 201 201 201 201 201 201 202 202 204 204 205 208 210 212 215 218 222 226 231 235 239 242 245 246 246 246 247 248 249 250 250 249 248
209 210 210 211 212 213 214 214 214 214 215 215 215 215 215 214 215 215 215 214 213 211 209 208 208 209 210 211 212 212 211 209 206 204 202 202 203 204 205 204 203 202 202 203 205 206 208 210 212 215 219 223 227 230 234 237 240 244 247 248 248 248 248 248 249 249 248 247 247
208 209 210 211 212 214 214 214 213 213 214 215 216 215 215 215 216 216 216 215 215 213 211 210 209 210 210 211 211 211 210 209 208 207 205 205 206 208 208 208 207 206 205 205 206 207 209 210 211 214 218 222 227 230 233 236 239 243 247 250 250 250 249 248 248 247 247 247 247
207 208 210 211 212 214 214 213 212 213 214 215 216 216 216 217 218 219 219 218 217 215 214 213 212 212 211 211 211 210 208 208 209 209 209 208 209 210 211 212 211 210 210 210 210 211 212 213 213 215 217 221 225 229 232 235 237 240 244 248 251 251 249 248 247 246 246 246 247
205 207 208 210 211 212 212 211 210 211 213 214 215 215 216 217 218 220 221 221 220 218 217 216 215 215 214 213 212 210 208 206 208 209 210 211 211 212 213 214 214 214 214 214 215 216 216 217 217 218 219 222 225 228 231 233 234 237 241 246 249 250 249 248 247 246 246 246 249
203 205 206 208 209 210 210 208 207 208 210 212 212 212 214 215 217 219 220 221 221 221 220 219 219 218 218 217 216 214 211 209 208 209 211 212 213 214 215 216 216 216 216 217 218 219 220 221 221 222 223 224 226 228 231 233 234 236 239 244 248 250 250 249 248 247 247 248 251
201 203 204 205 207 207 207 206 205 206 208 209 210 210 211 213 215 216 218 219 219 220 221 221 221 220 220 220 219 218 215 213 210 209 210 212 214 215 217 218 219 219 219 219 220 222 223 224 225 226 226 227 228 229 231 233 234 236 239 243 247 249 250 251 250 250 250 250 252
200 202 203 203 204 204 205 205 204 204 206 208 210 210 210 211 213 215 217 217 217 217 218 219 220 220 220 221 220 219 217 216 213 211 211 212 213 216 218 220 222 223 223 223 223 224 225 226 227 227 228 228 229 230 231 233 234 236 239 242 246 248 251 252 252 251 251 252 253
199 201 201 202 201 203 204 205 204 204 205 208 210 211 210 210 211 214 216 217 216 215 215 216 217 218 218 219 218 218 218 217 216 215 215 215 217 219 222 224 226 227 228 228 228 227 227 227 227 227 228 228 229 230 231 232 233 235 237 240 244 247 250 251 252 252 252 253 254
198 199 200 200 201 203 204 205 204 203 205 208 210 211 210 210 210 212 214 215 216 215 214 214 215 215 215 215 216 216 218 219 220 220 220 221 222 224 226 227 228 230 230 231 230 229 228 227 226 226 226 227 228 229 230 231 232 234 236 239 242 245 248 249 250 251 252 253 254
196 197 198 199 201 202 204 205 204 203 205 207 210 211 211 211 210 210 211 213 214 215 215 214 214 213 213 214 215 216 218 219 220 221 222 223 224 225 226 227 229 230 231 231 231 230 228 226 224 224 224 225 226 228 229 231 232 234 236 238 241 244 246 247 247 248 250 251 252
195 196 197 199 200 202 204 204 204 205 206 209 211 212 212 212 211 210 210 212 214 215 215 215 214 213 213 213 215 216 217 218 219 220 221 222 222 223 224 225 226 227 228 229 229 228 227 225 223 222 222 223 225 227 229 231 233 235 237 240 242 243 244 244 245 246 247 249 250
195 196 197 198 200 201 203 205 206 207 208 211 212 213 214 214 213 212 211 212 214 216 216 216 215 214 213 213 214 215 216 217 217 218 218 219 220 220 221 222 223 224 225 225 225 225 224 223 221 220 220 221 223 226 229 231 234 236 239 241 242 243 243 243 243 244 245 247 248
196 196 197 198 200 202 204 205 206 208 209 211 212 213 214 214 214 213 212 212 213 215 215 216 215 214 213 212 212 213 215 216 217 218 218 218 219 219 220 221 222 223 224 224 224 224 223 222 221 221 220 221 223 226 229 231 234 237 239 240 241 242 242 242 243 244 245 245 246
197 197 198 199 201 203 204 206 206 208 209 210 211 212 212 212 212 211 211 210 211 212 213 214 214 213 212 212 212 213 214 216 218 219 220 220 220 220 220 221 223 224 225 225 225 225 224 224 223 223 223 224 226 228 230 233 235 237 238 239 240 241 242 243 243 244 244 245 245
199 198 198 200 202 204 205 206 207 207 208 209 210 210 210 210 209 209 208 208 208 209 211 212 211 210 210 211 211 212 215 217 219 221 221 221 221 221 222 223 224 226 227 228 227 227 226 226 226 226 226 227 228 230 232 234 235 236 237 239 240 241 242 243 243 243 243 244 244
200 199 198 199 202 204 206 207 208 208 208 209 209 209 209 209 208 208 207 206 206 207 208 209 208 208 208 209 210 212 215 218 220 221 222 222 222 221 222 223 225 227 228 228 228 228 227 227 227 227 228 229 230 232 233 235 236 237 238 239 240 240 241 241 241 241 241 241 241
200 199 198 199 201 203 206 208 208 209 209 209 209 209 209 208 209 208 208 207 207 207 207 207 207 206 205 206 208 211 215 217 219 221 221 221 221 221 220 221 222 223 224 225 225 225 225 225 225 225 226 227 229 231 233 234 235 237 238 238 239 239 238 238 237 237 237 238 239
201 200 199 199 200 202 205 208 209 209 209 209 209 209 209 209 210 210 209 209 208 208 208 208 207 206 205 204 206 209 213 216 218 218 219 219 219 219 219 218 219 219 220 221 221 221 221 221 221 222 222 223 225 227 229 231 233 235 237 237 237 236 235 234 234 234 235 236 237
203 202 200 200 200 202 204 207 209 210 210 210 210 210 210 210 211 211 211 211 210 210 210 210 209 208 206 205 206 208 210 214 216 218 219 219 219 219 218 218 219 220 221 221 222 221 221 221 221 221 222 223 224 226 228 231 233 235 237 237 236 235 235 234 235 235 236 237 239
204 203 202 202 201 201 203 205 208 210 211 211 211 211 211 210 211 211 211 211 212 212 213 213 212 212 210 209 209 209 211 213 216 218 220 221 222 221 221 222 223 224 224 225 225 225 225 225 225 225 226 227 229 232 234 236 238 239 239 239 238 238 238 238 238 238 239 240 241
205 205 204 204 203 202 203 204 206 208 210 211 211 211 211 211 210 211 211 212 212 213 214 215 215 215 215 215 214 215 215 216 218 220 222 224 225 227 227 228 228 229 229 228 228 228 229 229 229 230 231 232 234 237 240 242 243 243 243 242 242 242 242 241 241 241 241 242 243
206 205 205 205 204 204 204 204 205 207 209 210 211 211 211 211 211 211 211 211 212 212 213 214 215 216 217 218 219 220 220 221 222 223 225 226 228 229 230 230 231 231 231 231 231 232 232 233 233 234 234 235 237 239 241 243 244 244 244 245 244 244 244 243 243 243 243 243 244
207 207 206 206 206 206 206 205 205 206 207 209 209 210 210 211 211 211 211 211 211 211 212 214 215 216 217 217 218 218 219 220 221 222 223 224 225 226 226 228 230 232 233 233 233 234 234 234 235 236 236 237 238 239 241 242 242 242 243 243 242 243 243 242 242 242 243 244 245
209 208 208 208 208 208 208 208 207 207 207 208 208 209 209 210 211 211 211 211 211 212 213 214 214 215 215 213 210 209 211 212 213 214 216 219 220 221 222 225 229 232 233 234 235 235 235 235 236 237 237 238 239 239 239 239 239 239 239 239 239 239 240 240 241 242 243 244 247
210 210 209 209 209 210 211 211 210 209 208 208 207 207 208 209 210 211 211 211 211 211 212 213 211 209 208 207 206 205 206 208 209 211 213 215 217 219 220 223 228 231 233 235 236 236 236 236 236 236 236 237 237 237 236 235 234 235 235 235 235 236 237 238 240 242 244 247 250
211 211 211 211 211 212 212 213 213 212 210 209 208 207 206 206 208 209 210 209 209 208 208 209 209 207 206 205 204 205 207 208 210 212 214 215 217 219 221 224 227 231 233 234 235 236 236 234 233 232 232 233 234 234 233 233 233 234 235 235 236 237 238 241 243 246 248 251 254
211 211 212 212 213 213 213 213 213 213 213 212 210 208 206 205 205 206 207 207 208 208 208 208 208 207 206 205 205 207 208 209 210 212 215 217 219 220 222 224 227 230 232 234 234 234 233 232 229 228 229 231 233 233 233 233 235 236 237 238 240 241 242 245 248 249 250 251 252